Location: Bellflower
(33.8817°N, 118.1170°W)
Time: 12:19:46
(UTC+00:00)

ATLAS 2AS CENTAUR R/B - Pass Details

Date: 23 November 2020
Orbit: 943 x 1268 km, 63.7° (Epoch: 16 January)

Event Time Altitude Azimuth Distance (km) Brightness Sun altitude
Rises 13:52:56 0° 227° (SW) 4,157 5.5 -8.5°
Reaches altitude 10° 13:55:47 10° 232° (SW) 3,218 4.9 -8.0°
Maximum altitude 14:03:21 50° 306° (NW) 1,582 3.3 -6.5°
Drops below altitude 10° 14:10:59 10° 20° (NNE) 3,240 5.2 -5.0°
Sets 14:13:53 0° 26° (NNE) 4,187 5.9 -4.4°
